Regional Weather Roundup
Issued by NWS

Home | Current Version | Previous Version | Graphics & Text | Print | Product List | Glossary Off
Versions: 1 2 3 4 5 6 7 8 9 10 11 12 13 14 15 16 17 18 19 20 21 22 23 24 25 26 27 28 29 30 31 32 33 34 35 36 37 38 39 40 41 42 43 44 45 46 47 48 49 50

000
ASUS43 KDTX 281701
RWRMI
MICHIGAN HOURLY REGIONAL WEATHER ROUNDUP
NATIONAL WEATHER SERVICE DETROIT/PONTIAC MI
100 PM EDT SUN AUG 28 2016

NOTE: "FAIR" INDICATES FEW OR NO CLOUDS BELOW 12,000 FEET WITH NO
SIGNIFICANT WEATHER AND/OR OBSTRUCTION TO VISIBILITY.

MIZ047>049-052>055-059>063-066>070-074>076-081>083-281800-
SOUTHEAST LOWER MICHIGAN

CITY           SKY/WX    TMP DP  RH WIND       PRES   REMARKS
ADRIAN         MOSUNNY   82  73  74 CALM      30.20F THUNDER
ALMA           PTSUNNY   76  68  75 W8G16     30.23S
ANN ARBOR      PTSUNNY   84  71  65 VRB7      30.21R
CARO           PTSUNNY   78  71  79 NW8       30.20S
DETROIT CITY   MOSUNNY   84  74  71 NW5       30.20R HX  91
DETROIT        LGT RAIN  84  74  71 NW5       30.20S HX  91
FLINT          MOSUNNY   84  69  60 W13       30.21S
GROSSE ILE     SUNNY     83  73  71 NW3       30.19R HX  90
HILLSDALE      MOSUNNY   83  73  72 NW7       30.22S
HOWELL         CLOUDY    81  69  66 W8        30.22S

CITY           SKY/WX    TMP DP  RH WIND       PRES   REMARKS
JACKSON        MOSUNNY   82  73  74 VRB5      30.22S
LAMBERTVILLE   MOSUNNY   86  74  66 SW3       30.20S HX  93
LANSING        MOSUNNY   80  68  66 W9        30.22S
LAPEER         CLOUDY    81  68  65 NW8       30.21S
MASON          MOSUNNY   81  70  69 NW10      30.22S
MONROE         SUNNY     87  77  72 W5        30.19S HX  98
MT. CLEMENS    PTSUNNY   83  73  70 NW6       30.19R
PONTIAC        CLOUDY    81  71  71 W8        30.21R
PORT HURON     CLOUDY    81  72  74 W3        30.19S
TRI CITIES     PTSUNNY   77  67  71 NW10      30.21S
MIDLAND        CLOUDY    75  66  75 NW7       30.21S
TROY           CLOUDY    83  70  64 W5        30.22S
SAGINAW HB     MOSUNNY   79  64  61 NW9       30.20S
$$
MIZ043>046-050>051-056>058-064>065-071>073-077>080-281800-
SOUTHWEST LOWER MICHIGAN

CITY           SKY/WX    TMP DP  RH WIND       PRES   REMARKS
BATTLE CREEK   MOSUNNY   80  71  74 NW7       30.23R
BENTON HARBOR  SUNNY     78  67  68 NW7       30.22R
BIG RAPIDS     PTSUNNY   76  65  70 W6        30.23S
COLDWATER      PTSUNNY   82  72  72 CALM      30.22S
FREMONT        PTSUNNY   76  64  67 N5        30.22F
HOLLAND        SUNNY     80  70  71 W7        30.23S
GRAND RAPIDS   PTSUNNY   79  65  62 N3        30.23S
IONIA          PTSUNNY   76  64  66 NW5       30.22S
KALAMAZOO      MOSUNNY   83  69  62 NW7       30.22S
LUDINGTON      PTSUNNY   74  65  75 W3        30.22S
MARSHALL       CLOUDY    81  72  74 CALM      30.22S
MOUNT PLEASANT CLOUDY    75  66  74 W6        30.22S
MUSKEGON       MOSUNNY   79  65  62 CALM      30.22S
SOUTH HAVEN    SUNNY     81  69  67 N7        30.22S
$$
MIZ016>042-281800-
NORTHERN LOWER MICHIGAN

CITY           SKY/WX    TMP DP  RH WIND       PRES   REMARKS
ALPENA         PTSUNNY   75  62  64 W8        30.19S
BEAVER ISLAND  MOSUNNY   73  64  74 SW9       30.20S
BELLAIRE       PTSUNNY   75  61  62 NW5       30.21S
CADILLAC       MOSUNNY   76  61  59 NW5       30.22F
CHARLEVOIX     CLOUDY    73  65  76 W13       30.23S
FRANKFORT      PTSUNNY   74  64  69 W7        30.21S
GAYLORD        CLOUDY    72  59  63 W9        30.22S
GRAYLING       PTSUNNY   76  62  61 W10       30.23S
HARBOR SPRINGS CLOUDY    72  64  77 W8        30.20R
HOUGHTON LAKE  PTSUNNY   75  61  61 NW8       30.23R
MANISTEE       PTSUNNY   74  63  68 W3        30.21F
OSCODA         CLOUDY    78  64  63 W7        30.18R
PELLSTON       MOSUNNY   74  62  66 NW12      30.19S
ROGERS CITY    CLOUDY    70  64  80 N6        30.19R
TRAVERSE CITY  PTSUNNY   76  63  64 N8        30.19S
$$
MIZ007>008-015-281800-
EASTERN UPPER MICHIGAN

CITY           SKY/WX    TMP DP  RH WIND       PRES   REMARKS
KINROSS        CLOUDY    68  63  84 NW6       30.18R
MACKINAC ISLAN CLOUDY    70  67  92 SW10      30.19R
NEWBERRY       PTSUNNY   70  62  75 NW8       30.18S HAZE
S. S. MARIE    PTSUNNY   71  61  70 W12G18    30.17R
$$
MIZ004>006-011>014-085-281800-
CENTRAL UPPER MICHIGAN

CITY           SKY/WX    TMP DP  RH WIND       PRES   REMARKS
MANISTIQUE     CLOUDY    73  63  69 N3        30.19S
ESCANABA       MOSUNNY   74  62  66 S7        30.20R
MENOMINEE      SUNNY    N/A N/A N/A CALM      30.21S
SAWYER-GWINN   PTSUNNY   70  59  68 N6        30.21S
$$
MIZ001>003-009>011-084-281800-
WESTERN UPPER MICHIGAN

CITY           SKY/WX    TMP DP  RH WIND       PRES   REMARKS
IRON MOUNTAIN  SUNNY     74  57  55 CALM      30.20S
HOUGHTON       CLOUDY    69  57  65 W7        30.20R
IRONWOOD       MOSUNNY   68  60  75 SE7       30.20F
$$

ABBREVIATIONS USED IN REMARKS
   TC - TEMPERATURE IN CELSIUS
  WCI - WIND CHILL INDEX
   HX - HEAT INDEX
  VSB - VISIBILITY





USA.gov is the U.S. government's official web portal to all federal, state and local government web resources and services.